9M2SES-13 Weather Reports


Display with metric or nautical units.
time (UTC)temp
F
wind
direction
speed
MPH
gust
MPH
rain 1hr
in
rain 24hr
in
rain mn
in
humidity
%
barometer
mb
20260502215936 80 315 0.0 0.0 0.00 0.00 0.00 95
20260502213934 82 315 0.0 0.0 0.00 0.00 0.00 95
20260502211932 80 315 0.0 0.0 0.00 0.00 0.00 95
20260502185920 82 315 0.0 7.0 0.00 0.00 0.00 95
20260502184920 80 315 0.0 15.0 0.00 0.00 0.00 95
20260502183918 80 315 0.0 15.0 0.00 0.00 0.00 95
20260502181917 82 0 0.0 15.0 0.00 0.00 0.00 95
20260502180916 80 0 0.0 15.0 0.00 0.00 0.00 95
20260502163909 80 0 0.0 15.0 0.00 0.00 0.00 95
20260502162908 82 0 7.0 31.0 0.00 0.00 0.00 95
20260502161908 82 90 0.0 15.0 0.00 0.00 0.00 95
20260502160908 82 90 7.0 23.0 0.00 0.00 0.00 95
20260502151903 82 180 0.0 15.0 0.00 0.00 0.09 95
20260502150902 84 180 7.0 15.0 0.00 0.00 0.09 95
20260502122847 84 315 15.0 31.0 0.00 0.00 0.09 95
20260502120847 86 315 0.0 31.0 0.00 0.00 0.09 95
20260502115845 86 315 7.0 23.0 0.00 0.00 0.09 95
20260502114845 86 315 7.0 15.0 0.00 0.00 0.09 95
20260502112843 86 0 0.0 15.0 0.00 0.00 0.09 95
20260502110841 86 0 0.0 15.0 0.00 0.00 0.09 95
20260502104839 86 0 7.0 31.0 0.00 0.00 0.09 95
20260502102836 86 315 0.0 31.0 0.00 0.00 0.09 95
20260502101836 87 315 15.0 47.0 0.00 0.00 0.09 95
20260502070821 89 180 63.0 142.0 0.00 0.00 0.09 33
20260502064820 93 180 15.0 110.0 0.00 0.00 0.09 10
20260502062818 95 315 15.0 79.0 0.00 0.00 0.09 40
20260502060816 93 180 23.0 63.0 0.00 0.00 0.09 10
20260502054815 91 180 55.0 79.0 0.00 0.00 0.09 32
20260502053813 91 180 63.0 87.0 0.00 0.00 0.09 36
20260502051812 95 180 31.0 71.0 0.00 0.00 0.09 10
20260502045811 93 180 7.0 87.0 0.00 0.00 0.09 10
20260502043810 93 135 23.0 63.0 0.00 0.00 0.09 10
20260502041808 89 0 0.0 71.0 0.00 0.00 0.09 18
20260502035806 91 0 7.0 79.0 0.00 0.00 0.09 30
20260502033804 89 0 15.0 63.0 0.00 0.00 0.09 84
20260502031803 87 180 31.0 55.0 0.00 0.00 0.09 82
20260502030802 87 180 7.0 39.0 0.00 0.00 0.09 95
20260502024801 87 180 15.0 63.0 0.00 0.00 0.09 95
20260502023800 86 180 15.0 47.0 0.00 0.00 0.09 95
20260502020757 84 180 15.0 63.0 0.00 0.00 0.09 95
20260502015757 84 180 15.0 47.0 0.00 0.00 0.09 95
20260502012754 84 0 7.0 47.0 0.00 0.00 0.09 95
20260502011752 82 270 7.0 31.0 0.00 0.00 0.09 95
20260502005751 82 270 15.0 23.0 0.00 0.00 0.09 95
20260502004751 82 270 0.0 31.0 0.00 0.00 0.09 95
20260502003750 80 45 0.0 23.0 0.00 0.00 0.09 95
20260502001748 80 0 7.0 23.0 0.00 0.00 0.09 95
20260502000748 78 270 15.0 23.0 0.00 0.00 0.09 81
20260501235747 78 270 15.0 23.0 0.00 0.00 0.09 95
20260501234747 78 315 0.0 15.0 0.00 0.00 0.09 95
20260501233746 78 315 0.0 23.0 0.00 0.00 0.09 95
20260501232745 78 315 0.0 15.0 0.00 0.00 0.09 95
20260501231744 78 315 0.0 0.0 0.00 0.00 0.09 95
20260501230744 78 315 0.0 15.0 0.00 0.00 0.09 95
20260501225743 78 315 0.0 15.0 0.00 0.00 0.09 91
20260501224742 78 315 0.0 0.0 0.00 0.00 0.09 95
20260501223742 77 225 0.0 0.0 0.00 0.00 0.09 95
20260501222741 78 225 0.0 0.0 0.00 0.00 0.09 95